Location: Boullarre
(49.1305°N, 3.0047°E)
Time: 16:40:23
(UTC+00:00)

Envisat - Visible Passes

Search period start: 05 June 2023 00:00
Search period end: 15 June 2023 00:00
Orbit: 763 x 765 km, 98.2° (Epoch: 05 June)

Date Brightness Start Highest point End Pass type
(mag) Time Alt. Az. Time Alt. Az. Time Alt. Az.
05 Jun 4.9 02:54:02 10° NE 02:58:25 28° E 03:02:46 10° SSE visible
06 Jun 5.6 02:18:14 10° NE 02:20:50 14° E 02:23:26 10° ESE visible
08 Jun 5.2 02:41:54 10° NE 02:45:52 23° E 02:49:49 10° SE visible
09 Jun 5.8 02:07:03 10° ENE 02:08:13 11° E 02:09:22 10° E visible
11 Jun 5.5 02:29:51 10° NE 02:33:17 18° E 02:36:42 10° SE visible
13 Jun 4.9 02:53:52 10° NE 02:58:16 29° E 03:02:38 10° SSE visible
14 Jun 5.6 02:18:01 10° NE 02:20:41 14° E 02:23:20 10° ESE visible
